Frederick, MD

4:40 PM EDT on October 19, 2019 (GMT -0400)
Frederick Municipal

Weather History for KFDK - August, 2019

Change the Weather History Date:

Wednesday, August 14, 2019

  Actual Average (WUND) Record (WUND)
Temperature  
Mean Temperature 80 °F -  
Max Temperature 87 °F - - (-1)
Min Temperature 73 °F - - (-1)
Cooling Degree Days 15    
Growing Degree Days 30 (Base 50)    
Moisture  
Dew Point 72 °F    
Average Humidity 88    
Maximum Humidity 100    
Minimum Humidity 55    
Precipitation  
Precipitation 0.01 in - - ()
Sea Level Pressure  
Sea Level Pressure 29.84 in    
Wind  
Wind Speed 1 mph (North)    
Max Wind Speed 7 mph    
Max Gust Speed -    
Visibility 6 miles    
Events Rain , Thunderstorm    
Averages and records for this station are not official NWS values.
T = Trace of Precipitation, MM = Missing Value Source: NWS Daily Summary

Daily Weather History Graph

Daily Weather History Graph

Search for Another Location

Airport or City:

Astronomy

Aug. 14, 2019 Rise Set
Actual Time 6:21 AM EDT 8:06 PM EDT
Civil Twilight 5:52 AM EDT 8:35 PM EDT
Nautical Twilight 5:17 AM EDT 9:10 PM EDT
Astronomical Twilight 4:39 AM EDT 9:47 PM EDT
Moon 7:59 PM EDT (8/14) 5:17 AM EDT (8/14)
Length of Visible Light 14h 43m
Length of Day
13h 45m
Waxing Gibbous, 99% of the Moon is Illuminated
Aug 14
Waxing Gibbous
Aug 15
Full
Aug 23
Last Quarter
Aug 30
New
Sep 5
First Quarter

Hourly Weather History & Observations

Time (EDT) Temp. Heat Index Dew Point Humidity Pressure Visibility Wind Dir Wind Speed Gust Speed Precip Events Conditions
12:05 AM 75.2 °F - 73.4 °F 94% 29.81 in 10.0 mi Calm Calm - N/A   Overcast
12:25 AM 75.2 °F - 73.4 °F 94% 29.82 in 7.0 mi Calm Calm - N/A Rain , Thunderstorm Rain
12:45 AM 75.2 °F - 73.4 °F 94% 29.80 in 5.0 mi Calm Calm - N/A   Light Drizzle
1:05 AM 73.4 °F - 73.4 °F 100% 29.80 in 5.0 mi Calm Calm - 0.01 in   Drizzle
1:25 AM 73.4 °F - 73.4 °F 100% 29.79 in 4.0 mi Calm Calm - 0.01 in   Scattered Clouds
1:45 AM 73.4 °F - 73.4 °F 100% 29.80 in 4.0 mi Calm Calm - 0.01 in   Scattered Clouds
2:05 AM 73.4 °F - 73.4 °F 100% 29.79 in 4.0 mi Calm Calm - N/A   Mostly Cloudy
2:25 AM 73.4 °F - 73.4 °F 100% 29.79 in 3.0 mi Calm Calm - N/A   Overcast
2:45 AM 73.4 °F - 73.4 °F 100% 29.78 in 3.0 mi Calm Calm - N/A   Mostly Cloudy
3:05 AM 73.4 °F - 73.4 °F 100% 29.78 in 3.0 mi Calm Calm - N/A   Scattered Clouds
3:25 AM 73.4 °F - 73.4 °F 100% 29.79 in 2.5 mi NW 3.5 mph - N/A   Mostly Cloudy
3:45 AM 73.4 °F - 73.4 °F 100% 29.79 in 2.5 mi Calm Calm - N/A   Overcast
4:05 AM 73.4 °F - 71.6 °F 94% 29.79 in 2.0 mi NNE 3.5 mph - N/A   Overcast
4:25 AM 73.4 °F - 71.6 °F 94% 29.79 in 2.0 mi NNE 4.6 mph - N/A   Overcast
4:45 AM 73.4 °F - 71.6 °F 94% 29.80 in 2.5 mi NE 3.5 mph - N/A   Overcast
5:05 AM 73.4 °F - 71.6 °F 94% 29.79 in 2.5 mi Calm Calm - N/A   Overcast
5:25 AM 73.4 °F - 71.6 °F 94% 29.80 in 2.5 mi North 4.6 mph - N/A   Overcast
5:45 AM 73.4 °F - 71.6 °F 94% 29.81 in 3.0 mi North 3.5 mph - N/A   Overcast
6:05 AM 73.4 °F - 71.6 °F 94% 29.82 in 2.5 mi Calm Calm - N/A Rain Light Rain
6:25 AM 73.4 °F - 71.6 °F 94% 29.82 in 2.0 mi Calm Calm - N/A   Light Drizzle
6:45 AM 73.4 °F - 71.6 °F 94% 29.83 in 2.5 mi Calm Calm - N/A   Overcast
6:47 AM 73.4 °F - 73.4 °F 100% 29.84 in 1.5 mi Calm Calm - N/A   Overcast
7:05 AM 73.4 °F - 71.6 °F 94% 29.84 in 1.8 mi Calm Calm - N/A   Overcast
7:47 AM 75.2 °F - 73.4 °F 94% 29.85 in 2.0 mi Calm Calm - N/A   Overcast
8:47 AM 77.0 °F - 73.4 °F 89% 29.85 in 5.0 mi WNW 5.8 mph - N/A   Mostly Cloudy
9:47 AM 78.8 °F - 73.4 °F 83% 29.85 in 7.0 mi NW 5.8 mph - N/A   Mostly Cloudy
10:47 AM 80.6 °F 85.4 °F 73.4 °F 79% 29.85 in 7.0 mi NNW 5.8 mph - N/A   Mostly Cloudy
11:47 AM 78.8 °F - 73.4 °F 83% 29.86 in 7.0 mi NNW 5.8 mph - N/A   Mostly Cloudy
12:47 PM 78.8 °F - 71.6 °F 78% 29.87 in 10.0 mi NE 5.8 mph - N/A   Mostly Cloudy
1:47 PM 82.4 °F 87.2 °F 71.6 °F 70% 29.88 in 10.0 mi NNE 6.9 mph - N/A   Overcast
2:47 PM 84.2 °F 89.6 °F 71.6 °F 66% 29.87 in 10.0 mi Calm Calm - N/A   Overcast
3:47 PM 86.0 °F 91.8 °F 71.6 °F 62% 29.87 in 10.0 mi NNE 3.5 mph - N/A   Mostly Cloudy
4:47 PM 87.8 °F 92.6 °F 69.8 °F 55% 29.87 in 10.0 mi NNE 5.8 mph - N/A   Mostly Cloudy
5:47 PM 87.8 °F 92.6 °F 69.8 °F 55% 29.87 in 10.0 mi NE 5.8 mph - N/A   Mostly Cloudy
6:47 PM 86.0 °F 91.8 °F 71.6 °F 62% 29.86 in 10.0 mi Calm Calm - N/A   Scattered Clouds
7:47 PM 82.4 °F 87.2 °F 71.6 °F 70% 29.87 in 10.0 mi Calm Calm - N/A   Scattered Clouds
8:47 PM 78.8 °F - 73.4 °F 83% 29.89 in 10.0 mi Calm Calm - N/A   Scattered Clouds
9:25 PM 77.0 °F - 73.4 °F 89% 29.92 in 10.0 mi Calm Calm - N/A   Clear
9:45 PM 77.0 °F - 71.6 °F 83% 29.92 in 10.0 mi Calm Calm - N/A   Scattered Clouds
10:25 PM 75.2 °F - 73.4 °F 94% 29.93 in 7.0 mi Calm Calm - N/A   Clear
10:45 PM 73.4 °F - 71.6 °F 94% 29.94 in 10.0 mi North 6.9 mph - N/A   Scattered Clouds
11:05 PM 75.2 °F - 71.6 °F 89% 29.94 in 10.0 mi NE 3.5 mph - N/A   Mostly Cloudy
11:25 PM 77.0 °F - 71.6 °F 83% 29.94 in 10.0 mi Calm Calm - N/A   Mostly Cloudy
11:45 PM 75.2 °F - 71.6 °F 89% 29.94 in 10.0 mi North 3.5 mph - N/A   Scattered Clouds